When you browse on this site, cookies collect data to enhance your experience and personalize the content and advertising you see.
Visit our Privacy Policy to learn more. By continuing to use the site, you agree to this use of cookies and data.
  • In Austria
  • List of Countries
  • For 7 days
  • Water Temperature
  • Weather Map
  • News
  • Weather Widgets
  • user-avatar
    Login

    Hourly Weather Salta

    Today, 6 June, Saturday

    Time Temperature Precipitation Wind Pressure Humidity
    00:00 +8°C° 0 mm 1 mps 652 mmHg 64%
    01:00 +7°C° 0 mm 1 mps 652 mmHg 63%
    02:00 +7°C° 0 mm 1 mps 652 mmHg 62%
    03:00 +7°C° 0 mm 1 mps 652 mmHg 61%
    04:00 +7°C° 0 mm 1 mps 651 mmHg 60%
    05:00 +7°C° 0 mm 1 mps 651 mmHg 59%
    06:00 +8°C° 0 mm 1 mps 651 mmHg 56%
    07:00 +9°C° 0 mm 1 mps 652 mmHg 53%
    08:00 +10°C° 0 mm 1 mps 653 mmHg 50%
    09:00 +13°C° 0 mm 1 mps 653 mmHg 43%
    10:00 +16°C° 0 mm 1 mps 654 mmHg 36%
    11:00 +20°C° 0 mm 1 mps 655 mmHg 29%
    12:00 +20°C° 0 mm 1 mps 654 mmHg 27%
    13:00 +20°C° 0 mm 2 mps 654 mmHg 26%
    14:00 +21°C° 0 mm 2 mps 653 mmHg 24%
    15:00 +19°C° 0 mm 2 mps 652 mmHg 28%
    16:00 +19°C° 0 mm 1 mps 652 mmHg 32%
    17:00 +18°C° 0 mm 1 mps 651 mmHg 36%
    18:00 +15°C° 0 mm 1 mps 651 mmHg 39%
    19:00 +13°C° 0 mm 1 mps 651 mmHg 41%
    20:00 +11°C° 0 mm 1 mps 651 mmHg 44%
    21:00 +11°C° 0 mm 1 mps 651 mmHg 46%
    22:00 +11°C° 0 mm 1 mps 651 mmHg 48%
    23:00 +10°C° 0 mm 1 mps 651 mmHg 50%

    Tomorrow, 7 June, Sunday

    Time Temperature Precipitation Wind Pressure Humidity
    00:00 +10°C° 0 mm 1 mps 651 mmHg 50%
    01:00 +10°C° 0 mm 1 mps 651 mmHg 51%
    02:00 +10°C° 0 mm 1 mps 651 mmHg 51%
    03:00 +10°C° 0 mm 1 mps 651 mmHg 51%
    04:00 +10°C° 0 mm 1 mps 650 mmHg 52%
    05:00 +10°C° 0 mm 1 mps 650 mmHg 52%
    06:00 +10°C° 0 mm 1 mps 651 mmHg 51%
    07:00 +11°C° 0 mm 1 mps 652 mmHg 50%
    08:00 +12°C° 0 mm 1 mps 652 mmHg 49%
    09:00 +15°C° 0 mm 1 mps 653 mmHg 43%
    10:00 +19°C° 0 mm 1 mps 654 mmHg 37%
    11:00 +21°C° 0 mm 1 mps 654 mmHg 31%
    12:00 +22°C° 0 mm 1 mps 654 mmHg 30%
    13:00 +23°C° 0 mm 2 mps 654 mmHg 29%
    14:00 +24°C° 0 mm 2 mps 653 mmHg 28%
    15:00 +23°C° 0 mm 2 mps 653 mmHg 33%
    16:00 +21°C° 0 mm 2 mps 653 mmHg 38%
    17:00 +19°C° 0 mm 2 mps 653 mmHg 43%
    18:00 +18°C° 0 mm 1 mps 652 mmHg 48%
    19:00 +15°C° 0 mm 1 mps 652 mmHg 53%
    20:00 +13°C° 0 mm 1 mps 652 mmHg 58%
    21:00 +13°C° 0 mm 1 mps 652 mmHg 60%
    22:00 +12°C° 0 mm 1 mps 652 mmHg 63%
    23:00 +12°C° 0 mm 1 mps 652 mmHg 66%

    Day after tomorrow, 8 June, Monday

    Time Temperature Precipitation Wind Pressure Humidity
    00:00 +12°C° 0 mm 1 mps 652 mmHg 66%
    01:00 +11°C° 0 mm 1 mps 651 mmHg 67%
    02:00 +11°C° 0 mm 1 mps 651 mmHg 68%
    03:00 +11°C° 0 mm 1 mps 651 mmHg 66%
    04:00 +11°C° 0 mm 1 mps 651 mmHg 64%
    05:00 +11°C° 0 mm 1 mps 651 mmHg 62%
    06:00 +11°C° 0 mm 1 mps 651 mmHg 59%
    07:00 +12°C° 0 mm 1 mps 652 mmHg 56%
    08:00 +13°C° 0 mm 1 mps 653 mmHg 53%
    09:00 +16°C° 0 mm 1 mps 653 mmHg 47%
    10:00 +19°C° 0 mm 1 mps 654 mmHg 42%
    11:00 +22°C° 0 mm 1 mps 655 mmHg 37%
    12:00 +23°C° 0 mm 1 mps 654 mmHg 35%
    13:00 +24°C° 0 mm 1 mps 654 mmHg 34%
    14:00 +25°C° 0 mm 1 mps 653 mmHg 32%
    15:00 +23°C° 0 mm 1 mps 653 mmHg 38%
    16:00 +22°C° 0 mm 1 mps 652 mmHg 43%
    17:00 +20°C° 0 mm 1 mps 652 mmHg 49%
    18:00 +18°C° 0 mm 1 mps 652 mmHg 54%
    19:00 +16°C° 0 mm 1 mps 651 mmHg 60%
    20:00 +14°C° 0 mm 1 mps 651 mmHg 65%
    21:00 +13°C° 0 mm 1 mps 651 mmHg 69%
    22:00 +13°C° 0 mm 1 mps 651 mmHg 72%
    23:00 +12°C° 0 mm 1 mps 651 mmHg 75%

    9 June, Tuesday

    Time Temperature Precipitation Wind Pressure Humidity
    00:00 +12°C° 0 mm 1 mps 651 mmHg 76%
    01:00 +12°C° 0 mm 1 mps 651 mmHg 76%
    02:00 +12°C° 0 mm 1 mps 651 mmHg 76%
    03:00 +12°C° 0 mm 1 mps 651 mmHg 77%
    04:00 +12°C° 0 mm 1 mps 651 mmHg 78%
    05:00 +11°C° 0 mm 1 mps 650 mmHg 78%
    06:00 +12°C° 0 mm 1 mps 651 mmHg 77%
    07:00 +13°C° 0 mm 1 mps 651 mmHg 75%
    08:00 +13°C° 0 mm 1 mps 652 mmHg 74%
    09:00 +15°C° 0 mm 1 mps 652 mmHg 69%
    10:00 +18°C° 0 mm 1 mps 652 mmHg 63%
    11:00 +20°C° 0 mm 1 mps 653 mmHg 58%
    12:00 +21°C° 0 mm 1 mps 652 mmHg 54%
    13:00 +21°C° 0 mm 2 mps 651 mmHg 50%
    14:00 +23°C° 0 mm 2 mps 651 mmHg 46%
    15:00 +21°C° 0 mm 2 mps 650 mmHg 50%
    16:00 +21°C° 0 mm 1 mps 650 mmHg 54%
    17:00 +20°C° 0 mm 1 mps 650 mmHg 59%
    18:00 +18°C° 0 mm 1 mps 649 mmHg 65%
    19:00 +15°C° 0 mm 1 mps 649 mmHg 71%
    20:00 +13°C° 0 mm 1 mps 649 mmHg 76%
    21:00 +13°C° 0 mm 1 mps 650 mmHg 77%
    22:00 +13°C° 0 mm 1 mps 650 mmHg 77%
    23:00 +13°C° 0 mm 1 mps 650 mmHg 78%

    10 June, Wednesday

    Time Temperature Precipitation Wind Pressure Humidity
    00:00 +13°C° 0 mm 1 mps 650 mmHg 77%
    01:00 +13°C° 0 mm 1 mps 650 mmHg 77%
    02:00 +13°C° 0 mm 1 mps 650 mmHg 77%
    03:00 +13°C° 0 mm 1 mps 650 mmHg 77%
    04:00 +13°C° 0 mm 1 mps 650 mmHg 77%
    05:00 +13°C° 0 mm 1 mps 650 mmHg 77%
    06:00 +13°C° 0 mm 1 mps 650 mmHg 77%
    07:00 +14°C° 0 mm 1 mps 651 mmHg 77%
    08:00 +14°C° 0 mm 1 mps 651 mmHg 77%
    09:00 +16°C° 0 mm 1 mps 651 mmHg 72%
    10:00 +18°C° 0 mm 1 mps 652 mmHg 67%
    11:00 +20°C° 0 mm 1 mps 652 mmHg 63%
    12:00 +19°C° 0 mm 2 mps 651 mmHg 59%
    13:00 +20°C° 0 mm 2 mps 651 mmHg 56%
    14:00 +21°C° 0 mm 2 mps 650 mmHg 52%
    15:00 +21°C° 0 mm 2 mps 650 mmHg 56%
    16:00 +20°C° 0 mm 2 mps 650 mmHg 60%
    17:00 +20°C° 0 mm 1 mps 649 mmHg 64%
    18:00 +18°C° 0 mm 1 mps 649 mmHg 71%
    19:00 +15°C° 0 mm 1 mps 649 mmHg 78%
    20:00 +14°C° 0 mm 1 mps 649 mmHg 85%
    21:00 +14°C° 0 mm 1 mps 649 mmHg 85%
    22:00 +14°C° 0 mm 1 mps 649 mmHg 85%
    23:00 +13°C° 0 mm 0 mps 650 mmHg 85%

    11 June, Thursday

    Time Temperature Precipitation Wind Pressure Humidity
    00:00 +14°C° 0 mm 1 mps 649 mmHg 85%
    01:00 +14°C° 0 mm 1 mps 649 mmHg 85%
    02:00 +14°C° 0 mm 1 mps 649 mmHg 85%
    03:00 +14°C° 0 mm 1 mps 648 mmHg 85%
    04:00 +14°C° 0 mm 1 mps 648 mmHg 85%
    05:00 +14°C° 0 mm 1 mps 647 mmHg 84%
    06:00 +14°C° 0 mm 1 mps 647 mmHg 84%
    07:00 +14°C° 0 mm 1 mps 648 mmHg 83%
    08:00 +15°C° 0 mm 1 mps 648 mmHg 82%
    09:00 +18°C° 0 mm 1 mps 648 mmHg 73%
    10:00 +20°C° 0 mm 1 mps 648 mmHg 64%
    11:00 +21°C° 0 mm 2 mps 648 mmHg 55%
    12:00 +23°C° 0 mm 2 mps 648 mmHg 51%
    13:00 +24°C° 0 mm 2 mps 648 mmHg 47%
    14:00 +26°C° 0 mm 2 mps 647 mmHg 43%
    15:00 +25°C° 0 mm 1 mps 647 mmHg 47%
    16:00 +24°C° 0 mm 1 mps 647 mmHg 52%
    17:00 +22°C° 0 mm 1 mps 647 mmHg 57%
    18:00 +21°C° 0 mm 1 mps 647 mmHg 60%
    19:00 +19°C° 0 mm 1 mps 648 mmHg 64%
    20:00 +16°C° 0 mm 1 mps 648 mmHg 68%
    21:00 +16°C° 0 mm 1 mps 648 mmHg 66%
    22:00 +16°C° 0 mm 1 mps 648 mmHg 65%
    23:00 +16°C° 0 mm 1 mps 649 mmHg 63%
    Show more